TimeCDT,TemperatureF,Dew PointF,Humidity,Sea Level PressureIn,VisibilityMPH,Wind Direction,Wind SpeedMPH,Gust SpeedMPH,PrecipitationIn,Events,Conditions,WindDirDegrees,DateUTC
12:13 AM,33.8,33.8,100,30.43,0.8,North,10.4,-,0.05,Snow,Snow,360,2013-05-02 05:13:00
12:33 AM,33.8,33.8,100,30.43,1.0,North,12.7,-,0.09,Snow,Snow,360,2013-05-02 05:33:00
12:53 AM,33.8,33.8,100,30.42,0.8,North,13.8,18.4,0.01,Snow,Snow,360,2013-05-02 05:53:00
1:13 AM,33.8,33.8,100,30.42,0.8,North,12.7,-,0.04,Snow,Snow,10,2013-05-02 06:13:00
1:33 AM,33.8,33.8,100,30.42,0.8,North,13.8,-,0.07,Snow,Snow,10,2013-05-02 06:33:00
1:53 AM,33.8,33.8,100,30.42,0.5,NNE,13.8,-,0.01,Snow,Heavy Snow,20,2013-05-02 06:53:00
2:13 AM,33.8,33.8,100,30.41,0.5,North,13.8,18.4,0.05,Snow,Heavy Snow,10,2013-05-02 07:13:00
2:33 AM,33.8,33.8,100,30.41,0.5,North,12.7,-,0.10,Snow,Heavy Snow,10,2013-05-02 07:33:00
2:53 AM,33.8,33.8,100,30.42,0.5,North,11.5,-,0.01,Snow,Heavy Snow,360,2013-05-02 07:53:00
3:13 AM,33.8,33.8,100,30.42,0.8,North,12.7,-,0.07,Snow,Snow,360,2013-05-02 08:13:00
3:33 AM,33.8,33.8,100,30.43,0.8,North,12.7,-,0.11,Snow,Snow,350,2013-05-02 08:33:00
3:53 AM,33.8,33.8,100,30.43,1.0,North,12.7,-,0.01,Snow,Snow,360,2013-05-02 08:53:00
4:13 AM,33.8,33.8,100,30.43,0.5,North,13.8,-,0.04,Snow,Heavy Snow,10,2013-05-02 09:13:00
4:33 AM,33.8,32.0,93,30.43,0.8,North,12.7,-,0.07,Snow,Snow,360,2013-05-02 09:33:00
4:53 AM,33.8,33.8,100,30.43,1.2,North,13.8,19.6,0.01,Snow,Light Snow,360,2013-05-02 09:53:00
5:13 AM,33.8,32.0,93,30.43,1.2,North,15.0,20.7,0.02,Snow,Light Snow,10,2013-05-02 10:13:00
5:33 AM,33.8,32.0,93,30.42,1.2,North,15.0,-,0.02,Snow,Light Snow,360,2013-05-02 10:33:00
5:53 AM,33.8,32.0,93,30.42,1.2,North,13.8,-,N/A,Snow,Light Snow,360,2013-05-02 10:53:00
6:13 AM,33.8,32.0,93,30.44,1.5,North,11.5,-,0.01,Snow,Light Snow,360,2013-05-02 11:13:00
6:33 AM,33.8,32.0,93,30.45,1.2,North,12.7,-,0.01,Snow,Light Snow,360,2013-05-02 11:33:00
6:53 AM,33.8,32.0,93,30.43,1.0,North,15.0,19.6,N/A,Snow,Light Snow,360,2013-05-02 11:53:00
7:13 AM,33.8,32.0,93,30.45,0.8,North,13.8,19.6,N/A,Snow,Light Snow,360,2013-05-02 12:13:00
7:33 AM,33.8,30.2,87,30.47,1.0,North,11.5,18.4,N/A,Snow,Light Snow,10,2013-05-02 12:33:00
7:53 AM,33.8,30.2,87,30.47,1.5,North,11.5,-,N/A,Snow,Light Snow,360,2013-05-02 12:53:00
8:13 AM,33.8,30.2,87,30.47,0.8,North,12.7,18.4,N/A,Snow,Light Snow,360,2013-05-02 13:13:00
8:33 AM,33.8,30.2,87,30.47,1.0,North,12.7,-,N/A,Snow,Light Snow,360,2013-05-02 13:33:00
8:53 AM,33.8,30.2,87,30.46,1.2,North,11.5,-,N/A,Snow,Light Snow,360,2013-05-02 13:53:00
9:13 AM,33.8,30.2,87,30.46,3.0,North,12.7,-,N/A,Snow,Light Snow,10,2013-05-02 14:13:00
9:33 AM,33.8,30.2,87,30.46,7.0,North,8.1,-,N/A,,Scattered Clouds,350,2013-05-02 14:33:00
9:53 AM,35.6,32.0,87,30.46,7.0,North,5.8,-,N/A,,Mostly Cloudy,360,2013-05-02 14:53:00
10:13 AM,35.6,32.0,87,30.46,7.0,North,6.9,-,N/A,,Scattered Clouds,350,2013-05-02 15:13:00
10:33 AM,35.6,30.2,81,30.46,4.0,North,8.1,-,N/A,Snow,Light Snow,350,2013-05-02 15:33:00
10:53 AM,35.6,30.2,81,30.46,10.0,North,12.7,18.4,N/A,,Clear,350,2013-05-02 15:53:00
11:13 AM,37.4,30.2,75,30.47,10.0,North,12.7,17.3,N/A,,Clear,350,2013-05-02 16:13:00
11:33 AM,37.4,30.2,75,30.46,10.0,North,15.0,20.7,N/A,,Scattered Clouds,350,2013-05-02 16:33:00
11:53 AM,37.4,30.2,75,30.46,10.0,NNW,13.8,23.0,N/A,,Scattered Clouds,340,2013-05-02 16:53:00
12:13 PM,37.4,28.4,70,30.46,10.0,North,16.1,23.0,N/A,,Mostly Cloudy,350,2013-05-02 17:13:00
12:33 PM,37.4,28.4,70,30.45,10.0,North,18.4,24.2,N/A,,Scattered Clouds,350,2013-05-02 17:33:00
12:53 PM,37.4,28.4,70,30.45,10.0,North,16.1,23.0,N/A,,Mostly Cloudy,350,2013-05-02 17:53:00
1:13 PM,37.4,28.4,70,30.44,10.0,North,18.4,-,N/A,,Mostly Cloudy,360,2013-05-02 18:13:00
1:33 PM,37.4,28.4,70,30.44,10.0,North,17.3,20.7,N/A,,Clear,350,2013-05-02 18:33:00
1:53 PM,37.4,28.4,70,30.44,10.0,North,16.1,21.9,N/A,,Clear,360,2013-05-02 18:53:00
2:13 PM,37.4,28.4,70,30.43,10.0,North,16.1,19.6,N/A,,Scattered Clouds,360,2013-05-02 19:13:00
2:33 PM,37.4,28.4,70,30.44,10.0,North,12.7,18.4,N/A,,Clear,350,2013-05-02 19:33:00
2:53 PM,37.4,28.4,70,30.44,10.0,North,11.5,-,N/A,,Clear,360,2013-05-02 19:53:00
3:13 PM,37.4,28.4,70,30.43,10.0,North,10.4,-,N/A,,Clear,360,2013-05-02 20:13:00
3:33 PM,39.2,28.4,65,30.43,10.0,North,10.4,-,N/A,,Clear,10,2013-05-02 20:33:00
3:53 PM,39.2,28.4,65,30.42,10.0,North,11.5,-,N/A,,Clear,10,2013-05-02 20:53:00
4:13 PM,39.2,28.4,65,30.42,10.0,North,11.5,-,N/A,,Clear,10,2013-05-02 21:13:00
4:33 PM,39.2,28.4,65,30.41,10.0,NNE,10.4,-,N/A,,Clear,30,2013-05-02 21:33:00
4:52 PM,39.2,28.4,65,30.40,10.0,NNE,9.2,-,N/A,,Clear,30,2013-05-02 21:52:00
5:13 PM,37.4,28.4,70,30.39,10.0,NNE,10.4,-,N/A,,Clear,30,2013-05-02 22:13:00
5:33 PM,37.4,28.4,70,30.39,10.0,NNE,12.7,-,N/A,,Clear,20,2013-05-02 22:33:00
5:53 PM,37.4,28.4,70,30.39,10.0,NNE,11.5,-,N/A,,Clear,20,2013-05-02 22:53:00
6:13 PM,37.4,28.4,70,30.39,10.0,NNE,11.5,-,N/A,,Clear,30,2013-05-02 23:13:00
6:33 PM,37.4,28.4,70,30.38,10.0,NNE,11.5,-,N/A,,Clear,20,2013-05-02 23:33:00
6:53 PM,37.4,28.4,70,30.38,10.0,NNE,10.4,-,N/A,,Clear,20,2013-05-02 23:53:00
7:11 PM,37.4,28.4,70,30.39,10.0,NNE,9.2,-,N/A,,Clear,20,2013-05-03 00:11:00
7:33 PM,37.4,28.4,70,30.38,10.0,NNE,9.2,-,N/A,,Clear,20,2013-05-03 00:33:00
7:53 PM,37.4,28.4,70,30.38,10.0,NNE,8.1,-,N/A,,Clear,20,2013-05-03 00:53:00
8:13 PM,37.4,28.4,70,30.39,10.0,NNE,5.8,-,N/A,,Clear,30,2013-05-03 01:13:00
8:33 PM,35.6,30.2,81,30.39,10.0,ENE,4.6,-,N/A,,Scattered Clouds,60,2013-05-03 01:33:00
8:53 PM,35.6,30.2,81,30.39,10.0,NE,4.6,-,N/A,,Scattered Clouds,40,2013-05-03 01:53:00
9:13 PM,35.6,30.2,81,30.39,10.0,NNE,3.5,-,N/A,,Mostly Cloudy,20,2013-05-03 02:13:00
9:33 PM,35.6,30.2,81,30.39,10.0,NNE,6.9,-,N/A,,Overcast,20,2013-05-03 02:33:00
9:53 PM,35.6,30.2,81,30.39,10.0,NNE,6.9,-,N/A,,Overcast,20,2013-05-03 02:53:00
10:13 PM,35.6,30.2,81,30.39,10.0,North,8.1,-,N/A,,Scattered Clouds,10,2013-05-03 03:13:00
10:33 PM,35.6,30.2,81,30.38,10.0,North,6.9,-,N/A,,Mostly Cloudy,10,2013-05-03 03:33:00
10:53 PM,35.6,30.2,81,30.38,10.0,North,9.2,-,N/A,,Overcast,10,2013-05-03 03:53:00
11:13 PM,35.6,30.2,81,30.37,10.0,North,9.2,-,N/A,,Overcast,10,2013-05-03 04:13:00
11:33 PM,35.6,30.2,81,30.36,10.0,North,8.1,-,N/A,,Overcast,10,2013-05-03 04:33:00
11:53 PM,35.6,30.2,81,30.37,10.0,North,6.9,-,N/A,,Overcast,10,2013-05-03 04:53:00